Hourly Data Report for September 06, 2019

QUALICUM BEACH AIRPORT
BRITISH COLUMBIA
Current Station Operator: ECCC - MSC

49°20'14.000" N
124°23'38.000" W
58.20 m
1026562
71766
VOQ

Download Data

Hourly Data (September 2019)
Hourly Data Report for September 6, 2019
TIME
LST
Temp Definition
°C
Dew Point Definition
°C
Rel Hum Definition
%
Precip. Amount Definition
mm

Wind Dir Definition
10's deg

Wind Spd Definition
km/h
Visibility Definition
km
Stn Press Definition
kPa
Hmdx Definition


Wind Chill Definition


Weather Definition


00:00 15.0 11.7 81 0.0 28 4   100.78     LegendNANA
01:00 13.4 10.7 84 0.0 22 2   100.79     LegendNANA
02:00 12.7 10.7 88 0.0 27 1   100.82     LegendNANA
03:00 11.9 10.3 90 0.0 25 2   100.82     LegendNANA
04:00 11.3 9.5 89 0.0 24 2   100.82     LegendNANA
05:00 10.7 9.2 90 0.0 25 1   100.86     LegendNANA
06:00 11.1 9.6 90 0.0 27 1   100.91     LegendNANA
07:00 13.7 10.7 82 0.0 27 1   100.96     LegendNANA
08:00 20.1 12.5 62 0.0 30 1   100.98     LegendNANA
09:00 20.2 13.1 64 0.0 3 4   101.00     LegendNANA
10:00 21.0 14.0 64 0.0 9 8   101.02     LegendNANA
11:00 21.3 12.9 59 0.0 8 12   101.02     LegendNANA
12:00 22.2 13.7 58 0.0 8 11   101.03 25   LegendNANA
13:00 22.5 16.3 68 0.0 11 12   101.02 27   LegendNANA
14:00 22.3 14.5 62 0.0 9 12   101.00 26   LegendNANA
15:00 23.7 14.1 55 0.0 9 10   100.99 27   LegendNANA
16:00 24.3 13.5 51 0.0 10 11   100.97 27   LegendNANA
17:00 23.4 14.8 58 0.0 8 6   100.97 27   LegendNANA
18:00 21.6 15.7 69 0.0 8 3   100.98 26   LegendNANA
19:00 19.0 15.7 81 0.0 10 1   101.01     LegendNANA
20:00 17.2 14.8 86 0.0   0   101.01     LegendNANA
21:00 16.9 14.3 85 0.0 28 3   101.03     LegendNANA
22:00 17.9 12.3 70 0.0 29 7   101.06     LegendNANA
23:00 15.9 12.0 77 0.0 28 5   101.04     LegendNANA

Notes on Data Quality.

Legend

  • E = Estimated
  • M = Missing
  • NA = Not Available*
  • [empty] = Indicates an unobserved value
Date modified: